Regional Weather Roundup
Issued by NWS Sterling, VA

Home | Current Version | Previous Version | Graphics & Text | Print | Product List | Glossary On
Versions: 1 2 3 4 5 6 7 8 9 10 11 12 13 14 15 16 17 18 19 20 21 22 23 24 25 26 27
000
ASUS41 KLWX 181111
RWRLWX

REGIONAL WEATHER ROUNDUP
NATIONAL WEATHER SERVICE BALTIMORE MD/WASHINGTON DC
700 AM EDT WED OCT 18 2017

Note: "FAIR" indicates few or no clouds below 12,000 feet
with no significant weather and/or obstructions to visibility.
 TC=TEMPERATURE CELSIUS

 * =Non NWS site. Station does not report precipitation (e.g. rain,
    snow, etc.), thunder, or fog.

DCZ001-MDZ009-015-VAZ040>042-051-053>054-181200-
WASHINGTON METRO

CITY           SKY/WX    TMP DP  RH WIND       PRES   REMARKS
WASHINGTON NAT CLEAR     46  40  79 SW3       30.38R
DULLES         CLEAR     36  36 100 CALM      30.37R
ANDREWS AFB    CLEAR     40  39  94 S3        30.35R
FT BELVOIR     CLEAR     38  37  96 CALM      30.37R
QUANTICO       CLEAR     42  41  96 NW3       30.38R
COLLEGE PARK*  CLEAR     39  38  97 CALM      30.36R
LEESBURG*      CLEAR     37  37 100 CALM      30.37R
MANASSAS*      PTCLDY    36  35  96 CALM      30.38R
GAITHERSBURG*  CLEAR     38  37  97 CALM      30.36R

$$

MDZ006>007-011-014-181200-
BALTIMORE METRO

CITY           SKY/WX    TMP DP  RH WIND       PRES   REMARKS
BWI AIRPORT    CLEAR     40  40 100 CALM      30.35R
MD SCIENCE CTR   N/A     50  38  63 MISG      30.36R
MARTIN STATE   CLEAR     43  43 100 CALM      30.37R
ANNAPOLIS      CLEAR     45  44  97 CALM      30.36R
FORT MEADE*    CLEAR     36  34  93 CALM      30.38R

$$

MDZ012-015-019>023-181200-
MARYLAND EASTERN SHORE

CITY           SKY/WX    TMP DP  RH WIND       PRES   REMARKS
OCEAN CITY     CLEAR     38  37  97 CALM      30.36S
SALISBURY      CLEAR     35  34  96 CALM      30.36R
CAMBRIDGE*     CLEAR     39  37  93 CALM      30.37R

$$

MDZ017>025-181200-
SOUTHERN MARYLAND

CITY           SKY/WX    TMP DP  RH WIND       PRES   REMARKS
PATUXENT RIVER CLEAR     41  30  65 W3        30.37R
ST INIGOES     CLEAR     41  40  96 CALM      30.36R
LEONARDTOWN*   NOT AVBL

$$

MDZ003>005-181200-
NORTH CENTRAL MARYLAND

CITY           SKY/WX    TMP DP  RH WIND       PRES   REMARKS
FREDERICK*     CLEAR     39  39 100 CALM      30.39R
HAGERSTOWN APT CLEAR     43  38  82 S6        30.35R
WESTMINSTER*   CLEAR     45  39  81 CALM      30.35R

$$

MDZ501>502-181200-
WESTERN MARYLAND

CITY           SKY/WX    TMP DP  RH WIND       PRES   REMARKS
OAKLAND*       CLEAR     45  32  61 W3        30.31R
CUMBERLAND*    CLOUDY    36  36 100 CALM      30.41R VSB 1/2

$$

VAZ025>031-181200-
SHENANDOAH VALLEY

CITY           SKY/WX    TMP DP  RH WIND       PRES   REMARKS
WINCHESTER*    CLEAR     36  34  93 CALM      30.36R
FRONT ROYAL*   CLEAR     39  36  87 CALM      30.36R
LURAY*         CLEAR     37  37 100 CALM      30.37R
NEW MARKET*    CLEAR     33  32  97 CALM      30.37R
STAUNTON*      CLEAR     30  29  95 CALM      30.39R
WAYNESBORO*    CLEAR     34  34  99 CALM      30.36S

$$

WVZ021-048>050-054>055-181200-
EASTERN WEST VIRGINIA PANHANDLE

CITY           SKY/WX    TMP DP  RH WIND       PRES   REMARKS
MARTINSBURG    CLEAR     36  34  92 CALM      30.35R
PETERSBURG*    CLEAR     32  32  99 CALM      30.38R

$$

VAZ036>039-050-181200-
CENTRAL FOOTHILLS

CITY           SKY/WX    TMP DP  RH WIND       PRES   REMARKS
CHARLOTTESVILL CLEAR     37  35  92 CALM      30.35S
CULPEPER*      CLEAR     33  32  94 CALM      30.38R
ORANGE*        CLEAR     34  34 100 CALM      30.36R
GORDONSVILLE*  CLEAR     34  34 100 CALM      30.36R
WARRENTON*     CLEAR     33  31  93 CALM      30.37R

$$

VAZ055>057-181200-
NORTH AND CENTRAL PIEDMONT

CITY           SKY/WX    TMP DP  RH WIND       PRES   REMARKS
FREDERICKSBRG* CLEAR     37  37 100 CALM      30.37R
STAFFORD*      CLEAR     32  32 100 CALM      30.41R

$$

NCZ024-NYZ072-PAZ021-071-VAZ022-071-181200-
OTHER REGIONAL OBSERVATIONS

CITY           SKY/WX    TMP DP  RH WIND       PRES   REMARKS
NEW YORK CITY  CLEAR     51  37  58 VRB5      30.33R
PHILADELPHIA   CLEAR     48  42  80 W5        30.35R
PITTSBURGH     CLEAR     42  38  85 CALM      30.33R
ROANOKE        CLEAR     40  38  93 CALM      30.38R
RICHMOND       CLEAR     40  39  97 CALM      30.37R
RALEIGH        CLEAR     39  39 100 CALM      30.36R

$$

ANZ530>537-181200-
MARINE OBSERVATIONS

STATION/POSITION TIME  TEMP    WIND        PRES
                       AIR SEA DIR/SP/G
                 (UTC) (F)     (DEG/KT/KT) (MB)
THOMAS PT LIGHT  1100   52 67  270/  7/  8   N/A
BALT KEY BRIDGE  1048   50     250/  5/  6 1027.9R
COVE POINT       1048   52     280/  6/  8 1028.8R
LEWISETTA        1048   49 64  280/  5/  6 1028.2R
SOLOMONS ISLAND  1042   51 70  280/  5/  7 1028.0R
PINEY POINT      1048          300/  7/  8   N/A

$$





USA.gov is the U.S. government's official web portal to all federal, state and local government web resources and services.